1495911600.17,45251,15.06,74320.3,0.19,-31.67,-32.29,0,*4B
1495911601.39,45252,15.06,74320.0,0.19,-32.13,-32.45,0,*42
1495911602.62,45253,15.06,74318.0,0.17,-32.01,-32.51,0,*4B
1495911603.87,45254,15.06,74318.3,0.17,-31.85,-32.51,0,*43
1495911605.09,45255,15.06,74316.0,0.15,-31.91,-32.39,0,*4B
1495911606.3,45256,15.06,74322.3,0.15,-32.01,-32.39,0,*42
1495911607.52,45257,15.06,74318.0,0.17,-32.01,-32.39,0,*41
1495911608.79,45258,15.06,74326.3,0.17,-31.85,-32.19,0,*43
1495911610.06,45259,15.06,74330.0,0.17,-31.85,-32.19,0,*42
1495911611.34,45260,15.06,74332.0,0.17,-31.73,-32.19,0,*41
1495911612.58,45261,15.06,74324.5,0.17,-31.85,-32.35,0,*47
1495911613.82,45262,15.06,74314.3,0.17,-31.85,-32.23,0,*43
1495911615.07,45263,15.06,74308.5,0.17,-31.85,-32.23,0,*42
1495911616.34,45264,15.06,74314.5,0.17,-31.85,-32.19,0,*4C
1495911617.61,45265,15.06,74312.0,0.17,-31.57,-31.91,0,*41
1495911618.83,45266,15.06,74316.5,0.17,-32.01,-32.39,0,*43
1495911620.06,45267,15.06,74324.0,0.15,-32.07,-32.39,0,*46
1495911621.26,45268,15.06,74332.5,0.15,-32.01,-32.35,0,*43
1495911622.5,45269,15.06,74330.0,0.17,-31.91,-32.23,0,*4D
1495911623.75,45270,15.06,74336.3,0.17,-31.85,-32.39,0,*4B
1495911624.97,45271,15.06,74334.0,0.15,-31.91,-32.35,0,*41
1495911626.19,45272,15.06,74330.3,0.17,-32.01,-32.39,0,*46
1495911627.39,45273,15.06,74328.5,0.15,-32.01,-32.35,0,*49
1495911628.61,45274,15.0,74324.5,0.13,-32.13,-32.57,0,*4F
1495911629.82,45275,15.06,74330.3,0.13,-32.13,-32.57,0,*4E
1495911631.07,45276,15.06,74330.8,0.13,-32.23,-32.63,0,*49
1495911632.31,45277,15.06,74332.8,0.11,-32.13,-32.63,0,*49
1495911633.52,45278,15.06,74334.5,0.13,-32.23,-32.57,0,*40
1495911634.78,45279,15.06,74324.5,0.11,-32.29,-32.63,0,*4E
1495911636.04,45280,15.06,74324.5,0.11,-32.29,-32.63,0,*48
1495911637.25,45281,15.06,74328.8,0.13,-32.23,-32.57,0,*46
1495911638.52,45282,15.06,74330.3,0.11,-31.95,-32.45,0,*4A
1495911639.76,45283,15.06,74328.8,0.11,-32.13,-32.63,0,*42
1495911640.97,45284,15.06,74332.0,0.11,-32.13,-32.57,0,*42
1495911642.21,45285,15.06,74330.5,0.09,-32.19,-32.63,0,*77
1495911643.43,45286,15.06,74334.5,0.09,-32.19,-32.69,0,*7E
1495911644.66,45287,15.0,74326.8,0.09,-32.29,-32.63,0,*76
1495911645.88,45288,15.06,74330.8,0.07,-32.01,-32.51,0,*7C
1495911647.07,45289,15.06,74330.0,0.09,-32.13,-32.51,0,*70
1495911648.32,45290,15.06,74324.8,0.07,-31.95,-32.35,0,*79
1495911649.51,45291,15.06,74328.8,0.09,-32.01,-32.51,0,*7A
1495911650.73,45292,15.06,74328.5,0.09,-32.19,-32.69,0,*7B
1495911651.95,45293,15.06,74336.3,0.07,-32.13,-32.51,0,*75
1495911653.14,45294,15.06,74336.0,0.09,-32.13,-32.51,0,*7C
1495911654.37,45295,15.06,74334.5,0.07,-32.01,-32.51,0,*70
1495911655.56,45296,15.06,74334.3,0.09,-32.13,-32.51,0,*7E
1495911656.81,45297,15.06,74334.3,0.07,-31.95,-32.51,0,*7C
1495911658.08,45298,15.06,74336.5,0.07,-31.95,-32.45,0,*76
1495911659.31,45299,15.06,74334.0,0.07,-32.01,-32.51,0,*7C
1495911660.57,45300,15.06,74330.0,0.07,-32.19,-32.63,0,*75
1495911661.79,45301,15.06,74332.5,0.05,-32.07,-32.69,0,*73
1495911663.0,45302,15.06,74338.0,0.05,-32.07,-32.57,0,*7D
1495911664.21,45303,15.0,74334.0,0.05,-32.19,-32.57,0,*73
1495911665.42,45304,15.0,74332.8,0.05,-32.19,-32.69,0,*79
1495911666.61,45305,15.06,74340.3,0.05,-32.23,-32.69,0,*71
1495911667.83,45306,15.06,74346.8,0.05,-32.19,-32.69,0,*7B
1495911669.04,45307,15.0,74340.0,0.05,-31.91,-32.35,0,*70
1495911670.25,45308,15.0,74336.8,0.05,-31.73,-32.23,0,*74
1495911671.47,45309,15.06,74340.3,0.01,-31.85,-32.23,0,*78
1495911672.69,45310,15.06,74342.0,0.05,-32.07,-32.39,0,*76
1495911673.87,45311,15.06,74344.8,0.01,-32.13,-32.57,0,*7E
1495911675.09,45312,15.06,74340.3,0.05,-32.07,-32.51,0,*7A
1495911676.32,45313,15.06,74342.3,0.01,-32.29,-32.63,0,*72
1495911677.53,45314,15.0,74342.8,0.05,-32.23,-32.75,0,*7C
1495911678.74,45315,15.06,74352.3,0.01,-32.23,-32.79,0,*75
1495911679.92,45316,15.06,74350.3,0.01,-32.13,-32.57,0,*79
1495911681.16,45317,15.0,74340.5,0.05,-31.73,-32.19,0,*73
1495911682.37,45318,15.06,74340.3,0.01,-31.51,-32.01,0,*71
1495911683.56,45319,15.06,74328.8,0.01,-31.79,-32.23,0,*7A
1495911684.8,45320,15.06,74326.3,0.01,-31.57,-31.91,0,*76
1495911686.03,45321,15.06,74328.0,0.01,-31.73,-32.29,0,*71
1495911687.28,45322,15.0,74324.5,0.05,-31.61,-32.19,0,*76
1495911688.52,45323,15.06,74328.5,0.01,-31.95,-32.63,0,*75
1495911689.76,45324,15.06,74326.3,0.01,-31.95,-32.63,0,*72
1495911690.99,45325,15.0,74330.0,0.01,-32.29,-32.63,0,*77
1495911692.22,45326,15.06,74326.8,0.01,-32.29,-32.79,0,*7F
1495911693.44,45327,15.06,74334.8,0.05,-32.19,-32.69,0,*78
1495911694.67,45328,15.06,74342.3,0.01,-32.29,-32.79,0,*71
1495911695.88,45329,15.0,74330.0,0.01,-31.95,-32.57,0,*78
1495911697.12,45330,15.0,74330.5,0.01,-31.95,-32.63,0,*77
1495911698.34,45331,15.06,74338.3,0.01,-31.91,-32.39,0,*7D
1495911699.55,45332,15.0,74330.0,0.01,-31.91,-32.39,0,*7E
1495911700.76,45333,15.06,74340.3,0.05,-31.33,-31.91,0,*72
1495911701.94,45334,15.0,74326.8,0.01,-31.67,-32.13,0,*79
1495911703.14,45335,15.06,74316.3,0.01,-31.79,-32.39,0,*7F
1495911704.35,45336,15.06,74316.8,0.05,-31.85,-32.35,0,*77
1495911705.57,45337,15.0,74324.0,0.05,-32.07,-32.51,0,*7D
1495911706.81,45338,15.0,74316.8,0.07,-31.61,-32.13,0,*75
1495911708.03,45339,15.06,74324.3,0.05,-31.85,-32.23,0,*7F
1495911709.24,45340,15.0,74316.5,0.05,-31.91,-32.35,0,*73
1495911710.45,45341,15.0,74316.0,0.05,-31.91,-32.39,0,*7E
1495911711.69,45342,15.0,74316.5,0.01,-31.91,-32.29,0,*78
1495911712.88,45343,15.0,74318.5,0.05,-32.01,-32.51,0,*78
1495911714.12,45344,15.0,74324.0,0.01,-32.07,-32.45,0,*78
1495911715.33,45345,15.0,74334.5,0.05,-32.07,-32.57,0,*7E
1495911716.54,45346,15.0,74330.8,0.01,-32.13,-32.45,0,*7F
1495911717.75,45347,15.0,74328.5,0.01,-31.91,-32.13,0,*74
1495911718.99,45348,15.0,74330.8,0.01,-32.07,-32.45,0,*74
1495911720.2,45349,15.0,74332.5,0.01,-32.23,-32.63,0,*77
1495911721.41,45350,15.0,74328.8,0.01,-32.23,-32.63,0,*7F
1495911722.68,45351,15.0,74328.0,-0.01,-32.29,-32.75,0,*5E
1495911723.92,45352,15.0,74330.5,-0.01,-32.23,-32.63,0,*50
1495911725.16,45353,15.0,74336.8,-0.01,-32.29,-32.69,0,*51
1495911726.38,45354,15.0,74328.8,-0.01,-32.13,-32.57,0,*52
1495911727.62,45355,15.06,74326.0,-0.01,-32.13,-32.75,0,*53
1495911728.87,45356,15.0,74324.3,-0.01,-32.07,-32.57,0,*55
1495911730.11,45357,15.0,74326.0,-0.01,-31.91,-32.23,0,*5B
1495911731.35,45358,15.0,74328.8,-0.03,-31.85,-32.29,0,*59
1495911732.63,45359,15.0,74328.0,-0.01,-32.07,-32.45,0,*59
1495911733.9,45360,15.0,74332.0,-0.01,-32.07,-32.63,0,*57
1495911735.12,45361,15.0,74330.0,-0.03,-32.19,-32.69,0,*51
1495911736.35,45362,15.0,74334.3,-0.03,-32.19,-32.69,0,*52
1495911737.54,45363,15.0,74332.8,-0.03,-32.35,-32.69,0,*5D
1495911738.77,45364,15.0,74332.8,-0.03,-32.29,-32.63,0,*5D
1495911739.99,45365,15.06,74338.0,-0.03,-32.29,-32.69,0,*56
1495911741.21,45366,15.0,74338.8,-0.03,-32.19,-32.69,0,*56
1495911742.44,45367,15.0,74334.5,-0.03,-32.19,-32.69,0,*57
1495911743.69,45368,15.0,74332.8,-0.05,-32.19,-32.69,0,*5E
1495911744.93,45369,15.0,74332.0,-0.05,-32.29,-32.69,0,*5C
1495911746.18,45370,15.0,74332.0,-0.05,-32.01,-32.45,0,*50
1495911747.41,45371,15.06,74334.0,-0.05,-32.01,-32.51,0,*54
1495911748.68,45372,15.0,74332.8,-0.05,-32.19,-32.63,0,*5F
1495911749.93,45373,15.0,74330.0,-0.05,-32.19,-32.69,0,*54
1495911751.15,45374,15.0,74336.8,-0.05,-32.13,-32.51,0,*52
1495911752.4,45375,15.0,74326.5,-0.05,-32.19,-32.69,0,*52
1495911753.63,45376,15.0,74334.8,-0.07,-32.07,-32.39,0,*59
1495911754.83,45377,15.0,74330.8,-0.07,-32.01,-32.39,0,*5E
1495911756.02,45378,15.0,74330.3,-0.07,-32.23,-32.57,0,*59
1495911757.24,45379,15.0,74328.8,-0.07,-32.23,-32.75,0,*58
1495911758.47,45380,15.0,74334.0,-0.07,-32.07,-32.51,0,*5E
1495911759.69,45381,15.0,74334.8,-0.07,-32.07,-32.57,0,*59
1495911760.9,45382,15.0,74334.0,-0.07,-32.19,-32.57,0,*55
1495911762.12,45383,15.0,74332.0,-0.07,-32.19,-32.57,0,*54
1495911763.34,45384,15.0,74334.5,-0.07,-32.19,-32.51,0,*55
1495911764.56,45385,15.0,74342.3,-0.07,-32.19,-32.57,0,*52
1495911765.79,45386,15.0,74340.0,-0.07,-32.19,-32.69,0,*5C
1495911767.03,45387,15.0,74338.5,-0.09,-32.23,-32.63,0,*50
1495911768.28,45388,15.0,74336.0,-0.09,-32.07,-32.39,0,*56
1495911769.49,45389,15.0,74338.0,-0.07,-32.01,-32.39,0,*5F
1495911770.76,45390,15.0,74340.3,-0.09,-31.95,-32.29,0,*56
1495911771.98,45391,15.0,74338.3,-0.09,-32.13,-32.57,0,*53
1495911773.19,45392,15.0,74336.0,-0.09,-32.13,-32.57,0,*50
1495911774.42,45393,15.0,74338.3,-0.11,-32.23,-32.75,0,*6B
1495911775.66,45394,15.0,74338.8,-0.11,-32.29,-32.63,0,*61
1495911776.91,45395,15.0,74338.8,-0.11,-32.29,-32.75,0,*67
1495911778.13,45396,15.0,74336.0,-0.11,-32.13,-32.63,0,*6A
1495911779.32,45397,15.0,74342.5,-0.11,-32.23,-32.57,0,*6F
1495911780.51,45398,15.06,74342.3,-0.11,-32.13,-32.57,0,*63
1495911781.73,45399,15.0,74340.3,-0.11,-32.13,-32.63,0,*65
1495911782.95,45400,15.0,74342.5,-0.11,-32.23,-32.63,0,*61
1495911784.15,45401,15.0,74334.5,-0.11,-32.13,-32.57,0,*64
1495911785.4,45402,15.0,74336.8,-0.11,-31.57,-31.95,0,*69
1495911786.65,45403,15.0,74332.0,-0.11,-31.95,-32.45,0,*68
1495911787.88,45404,15.0,74336.3,-0.11,-31.91,-32.23,0,*6B
1495911789.13,45405,15.0,74336.3,-0.11,-31.95,-32.29,0,*64
1495911790.35,45406,15.0,74336.3,-0.11,-32.13,-32.45,0,*60
1495911791.54,45407,15.0,74342.0,-0.11,-32.23,-32.57,0,*61
1495911792.73,45408,15.0,74340.8,-0.11,-32.23,-32.57,0,*6E
1495911793.98,45409,15.0,74338.5,-0.13,-32.13,-32.63,0,*69
1495911795.21,45410,15.0,74342.8,-0.13,-32.13,-32.51,0,*60
1495911796.47,45411,15.0,74342.3,-0.13,-32.19,-32.69,0,*60
1495911797.75,45412,15.0,74342.3,-0.13,-32.29,-32.63,0,*6A
1495911798.97,45413,15.0,74340.3,-0.13,-32.35,-32.69,0,*6C
1495911800.22,45414,15.0,74342.0,-0.13,-32.35,-32.79,0,*6A
1495911801.47,45415,15.0,74340.5,-0.15,-32.19,-32.63,0,*68
1495911802.71,45416,15.0,74336.5,-0.15,-32.19,-32.51,0,*6A
1495911803.96,45417,15.0,74340.3,-0.15,-32.19,-32.63,0,*6A
1495911805.18,45418,15.0,74340.5,-0.15,-32.35,-32.79,0,*60
1495911806.4,45419,15.0,74342.0,-0.11,-32.23,-32.45,0,*6D
1495911807.63,45420,15.0,74342.3,-0.13,-32.13,-32.51,0,*63
1495911808.88,45421,15.0,74340.3,-0.15,-32.19,-32.63,0,*6F
1495911810.08,45422,15.0,74340.3,-0.15,-32.35,-32.69,0,*68
1495911811.31,45423,15.0,74342.8,-0.15,-32.35,-32.79,0,*68
1495911812.53,45424,15.0,74344.3,-0.15,-32.35,-32.79,0,*6F
1495911813.78,45425,15.0,74342.3,-0.15,-32.29,-32.63,0,*68
1495911815.04,45426,15.0,74346.5,-0.17,-32.07,-32.39,0,*6A
1495911816.27,45427,15.0,74346.0,-0.17,-32.23,-32.51,0,*63
1495911817.53,45428,15.0,74344.8,-0.17,-32.19,-32.69,0,*6E
1495911818.79,45429,15.0,74346.3,-0.17,-32.23,-32.75,0,*6B
1495911820.02,45430,15.0,74350.0,-0.17,-32.35,-32.91,0,*6E
1495911821.28,45431,15.0,74344.5,-0.17,-32.35,-32.75,0,*65
1495911822.51,45432,15.0,74344.5,-0.17,-32.35,-32.69,0,*6B
1495911823.76,45433,15.0,74346.0,-0.17,-32.35,-32.75,0,*67
1495911824.96,45434,15.0,74344.8,-0.21,-32.35,-32.69,0,*68
1495911826.18,45435,15.0,74342.3,-0.21,-32.07,-32.39,0,*6D
1495911827.42,45436,15.0,74344.8,-0.21,-32.07,-32.51,0,*60
1495911828.64,45437,15.0,74348.0,-0.17,-32.23,-32.57,0,*64
1495911829.84,45438,15.0,74344.5,-0.21,-32.23,-32.69,0,*63
1495911831.1,45439,15.0,74344.3,-0.17,-32.19,-32.69,0,*6E
1495911832.32,45440,15.0,74348.8,-0.21,-32.35,-32.75,0,*66
1495911833.59,45441,15.0,74350.5,-0.23,-32.29,-32.63,0,*6F
1495911834.77,45442,15.0,74354.0,-0.21,-32.23,-32.57,0,*63
1495911836.02,45443,15.0,74354.0,-0.23,-32.23,-32.63,0,*67
1495911837.3,45444,15.0,74342.3,-0.23,-32.07,-32.45,0,*62
1495911838.56,45445,15.0,74342.0,-0.23,-32.29,-32.63,0,*6B
1495911839.76,45446,15.0,74346.3,-0.25,-32.23,-32.57,0,*63
1495911841.0,45447,15.0,74346.0,-0.23,-31.91,-32.23,0,*6D
1495911842.27,45448,15.0,74340.8,-0.23,-31.91,-32.29,0,*68
1495911843.52,45449,15.0,74342.8,-0.23,-32.01,-32.29,0,*63
1495911844.77,45450,15.0,74340.0,-0.25,-31.91,-32.29,0,*67
1495911846.03,45451,15.0,74340.3,-0.23,-32.01,-32.45,0,*60
1495911847.26,45452,15.0,74342.3,-0.23,-32.29,-32.57,0,*6A
1495911848.51,45453,15.0,74340.8,-0.25,-32.29,-32.63,0,*6A
1495911849.76,45454,15.0,74340.8,-0.25,-32.29,-32.75,0,*6A
1495911851.04,45455,15.0,74348.3,-0.23,-32.29,-32.75,0,*6D
1495911852.27,45456,15.0,74350.3,-0.25,-32.23,-32.75,0,*62
1495911853.52,45457,15.0,74350.0,-0.25,-32.29,-32.75,0,*69
1495911854.72,45458,15.0,74352.8,-0.25,-32.23,-32.57,0,*6C
1495911855.95,45459,15.0,74350.8,-0.25,-32.23,-32.75,0,*6D
1495911857.2,45460,15.0,74352.0,-0.23,-32.39,-32.79,0,*66
1495911858.45,45461,15.0,74348.8,-0.25,-32.29,-32.75,0,*6C
1495911859.68,45462,15.0,74348.5,-0.25,-32.39,-32.79,0,*62
1495911860.91,45463,15.0,74350.8,-0.23,-32.39,-32.91,0,*63
1495911862.18,45464,15.0,74348.3,-0.27,-32.45,-32.79,0,*6D
1495911863.43,45465,15.0,74346.5,-0.29,-32.45,-32.97,0,*62
1495911864.7,45466,15.0,74344.5,-0.27,-32.45,-32.79,0,*6F
1495911865.92,45467,15.0,74346.0,-0.29,-32.35,-32.63,0,*6C
1495911867.17,45468,15.0,74348.3,-0.27,-32.35,-32.63,0,*6D
1495911868.39,45469,15.0,74348.8,-0.29,-32.35,-32.85,0,*6A
1495911869.64,45470,15.0,74350.5,-0.29,-32.45,-32.97,0,*66
1495911870.89,45471,15.0,74350.3,-0.29,-32.45,-32.97,0,*67
1495911872.11,45472,15.0,74352.8,-0.29,-32.51,-32.97,0,*61
1495911873.39,45473,15.0,74348.8,-0.27,-32.45,-32.79,0,*6B
1495911874.64,45474,15.0,74348.3,-0.31,-32.51,-32.85,0,*6D
1495911875.9,45475,15.0,74348.8,-0.31,-32.51,-32.85,0,*6C
1495911877.15,45476,15.0,74348.3,-0.31,-32.35,-32.75,0,*62
1495911878.38,45477,15.0,74348.0,-0.31,-32.23,-32.69,0,*69
1495911879.59,45478,15.0,74346.5,-0.31,-32.23,-32.57,0,*6B
1495911880.85,45479,15.0,74354.0,-0.31,-32.39,-32.75,0,*61
1495911882.07,45480,15.0,74350.8,-0.31,-32.35,-32.69,0,*66
1495911883.3,45481,15.0,74352.8,-0.31,-32.39,-32.91,0,*6C
1495911884.55,45482,15.0,74352.3,-0.31,-32.35,-32.75,0,*69
1495911885.79,45483,15.0,74348.3,-0.33,-32.39,-32.75,0,*66
1495911887.01,45484,15.0,74348.5,-0.31,-32.23,-32.69,0,*65
1495911888.25,45485,15.0,74346.0,-0.33,-32.39,-32.79,0,*6C
1495911889.48,45486,15.0,74346.3,-0.33,-32.39,-32.79,0,*6F
1495911890.68,45487,15.0,74350.0,-0.33,-32.39,-32.69,0,*6F
1495911891.91,45488,15.0,74348.5,-0.33,-32.23,-32.63,0,*61
1495911893.16,45489,15.0,74352.0,-0.33,-32.29,-32.63,0,*6A
1495911894.38,45490,15.0,74346.5,-0.33,-32.29,-32.91,0,*6F
1495911895.64,45491,15.0,74348.8,-0.33,-32.45,-32.75,0,*6E
1495911896.89,45492,15.0,74350.8,-0.35,-32.39,-32.79,0,*6C
1495911898.12,45493,15.0,74348.3,-0.37,-32.35,-32.79,0,*63
1495911899.39,45494,15.0,74350.5,-0.35,-32.29,-32.75,0,*67
1495911900.67,45495,15.0,74348.0,-0.35,-32.29,-32.75,0,*66
1495911901.94,45496,15.0,74344.8,-0.35,-32.29,-32.63,0,*62
1495911903.2,45497,15.0,74352.3,-0.35,-32.39,-32.79,0,*69
1495911904.45,45498,15.0,74348.3,-0.35,-32.39,-32.79,0,*66
1495911905.7,45499,15.0,74352.0,-0.37,-32.45,-32.79,0,*6E
1495911906.92,45500,15.0,74350.5,-0.37,-32.35,-32.79,0,*68
1495911908.17,45501,15.0,74350.0,-0.35,-32.23,-32.63,0,*67
1495911909.4,45502,15.0,74350.8,-0.37,-32.51,-32.79,0,*68
1495911910.65,45503,15.0,74348.8,-0.37,-32.29,-32.79,0,*66
1495911911.89,45504,15.0,74350.8,-0.37,-32.29,-32.63,0,*6A
1495911913.14,45505,15.0,74348.0,-0.37,-32.45,-32.85,0,*69
1495911914.37,45506,15.0,74350.3,-0.37,-32.35,-32.85,0,*6D
1495911915.62,45507,15.0,74350.5,-0.39,-32.51,-32.79,0,*63
1495911916.87,45508,15.0,74348.0,-0.39,-32.35,-32.79,0,*6E
1495911918.12,45509,15.0,74352.3,-0.39,-32.29,-32.69,0,*63
1495911919.39,45510,15.0,74352.0,-0.39,-32.29,-32.79,0,*6A
1495911920.64,45511,15.0,74348.5,-0.39,-32.23,-32.63,0,*6A
1495911921.87,45512,15.0,74348.5,-0.39,-32.23,-32.69,0,*63
1495911923.12,45513,15.0,74346.8,-0.39,-32.29,-32.69,0,*68
1495911924.34,45514,15.0,74348.0,-0.39,-32.23,-32.69,0,*65
1495911925.59,45515,15.0,74346.5,-0.43,-32.29,-32.69,0,*63
1495911926.82,45516,15.0,74350.3,-0.39,-32.13,-32.51,0,*6F
1495911928.05,45517,15.0,74350.8,-0.39,-32.23,-32.51,0,*6D
1495911929.29,45518,15.0,74354.0,-0.43,-32.29,-32.57,0,*63
1495911930.55,45519,15.0,74348.8,-0.43,-32.39,-32.75,0,*63
1495911931.76,45520,15.0,74348.5,-0.43,-32.35,-32.91,0,*6F
1495911932.99,45521,15.0,74354.0,-0.39,-32.23,-32.69,0,*63
1495911934.24,45522,15.0,74352.0,-0.43,-32.29,-32.69,0,*67
1495911935.49,45523,15.0,74350.0,-0.43,-32.39,-32.85,0,*65
1495911936.74,45524,15.0,74348.5,-0.43,-32.35,-32.75,0,*61
1495911937.99,45525,15.0,74350.3,-0.43,-32.35,-32.85,0,*6F
1495911939.23,45526,15.0,74346.3,-0.43,-32.35,-32.85,0,*6C
1495911940.48,45527,15.0,74348.0,-0.43,-32.29,-32.69,0,*62
1495911941.73,45528,15.0,74350.3,-0.43,-32.35,-32.75,0,*6D
1495911942.96,45529,15.0,74348.0,-0.45,-32.39,-32.75,0,*66
1495911944.21,45530,15.0,74348.8,-0.45,-32.45,-32.79,0,*69
1495911945.44,45531,15.0,74344.5,-0.45,-32.39,-32.79,0,*63
1495911946.67,45532,15.0,74346.0,-0.45,-32.23,-32.75,0,*67
1495911947.89,45533,15.0,74350.0,-0.45,-32.35,-32.79,0,*6D
1495911949.12,45534,15.0,74346.3,-0.45,-32.39,-32.79,0,*66
1495911950.37,45535,15.0,74344.5,-0.47,-32.35,-32.75,0,*65
1495911951.6,45536,15.0,74346.3,-0.45,-32.39,-32.79,0,*64
1495911952.83,45537,15.0,74348.0,-0.45,-32.39,-32.75,0,*69
1495911954.1,45538,15.0,74348.3,-0.47,-32.45,-32.79,0,*63
1495911955.35,45539,15.0,74344.3,-0.47,-32.35,-32.75,0,*69
1495911956.58,45540,15.0,74344.8,-0.47,-32.39,-32.91,0,*61
1495911957.85,45541,15.0,74350.8,-0.47,-32.45,-32.79,0,*6D
1495911959.1,45542,15.0,74348.3,-0.47,-32.39,-32.79,0,*65
1495911960.36,45543,15.0,74346.8,-0.47,-32.39,-32.75,0,*68
1495911961.59,45544,15.0,74346.8,-0.49,-32.39,-32.79,0,*6D
1495911962.84,45545,15.0,74346.3,-0.47,-32.35,-32.75,0,*62
1495911964.04,45546,15.0,74346.3,-0.49,-32.23,-32.69,0,*65
1495911965.28,45547,15.0,74346.3,-0.49,-32.39,-32.85,0,*6D
1495911966.53,45548,14.94,74342.5,-0.49,-32.45,-32.85,0,*69
1495911967.76,45549,15.0,74346.5,-0.49,-32.39,-32.79,0,*60
1495911969.02,45550,15.0,74346.5,-0.49,-32.45,-32.79,0,*63
1495911970.29,45551,15.0,74346.8,-0.51,-32.29,-32.79,0,*61
1495911971.52,45552,15.0,74346.5,-0.51,-32.39,-32.69,0,*62
1495911972.8,45553,15.0,74344.5,-0.51,-32.29,-32.79,0,*63
1495911974.03,45554,15.0,74346.3,-0.49,-32.39,-32.79,0,*6C
1495911975.28,45555,15.0,74348.8,-0.51,-32.13,-32.63,0,*67
1495911976.51,45556,15.0,74348.5,-0.49,-32.29,-32.69,0,*6E
1495911977.74,45557,14.94,74346.0,-0.49,-32.29,-32.69,0,*6F
1495911978.99,45558,15.0,74348.0,-0.51,-32.39,-32.63,0,*62
1495911980.24,45559,15.0,74348.0,-0.51,-32.29,-32.69,0,*68
1495911981.5,45560,14.94,74342.8,-0.51,-32.39,-32.85,0,*61
1495911982.75,45561,15.0,74346.0,-0.51,-32.39,-32.85,0,*60
1495911983.98,45562,15.0,74348.8,-0.51,-32.23,-32.69,0,*6A
1495911985.25,45563,14.94,74344.3,-0.51,-32.29,-32.63,0,*6B
1495911986.48,45564,14.94,74344.0,-0.51,-32.23,-32.51,0,*67
1495911987.73,45565,15.0,74346.3,-0.51,-32.13,-32.63,0,*64
1495911988.98,45566,15.0,74346.0,-0.53,-32.45,-32.85,0,*6E
1495911990.26,45567,14.94,74342.0,-0.55,-32.45,-32.75,0,*66
1495911991.54,45568,15.0,74344.3,-0.55,-32.45,-32.75,0,*69
1495911992.73,45569,15.0,74344.8,-0.53,-32.35,-32.69,0,*64
1495911993.94,45570,15.0,74346.8,-0.53,-32.13,-32.51,0,*63
1495911995.17,45571,15.0,74344.3,-0.55,-32.01,-32.51,0,*67
1495911996.39,45572,14.94,74340.8,-0.53,-32.19,-32.57,0,*6D
1495911997.59,45573,15.0,74342.8,-0.53,-32.35,-32.69,0,*6F
1495911998.83,45574,15.0,74346.8,-0.55,-32.29,-32.69,0,*63
1495912000.06,45575,14.94,74346.8,-0.55,-32.35,-32.69,0,*6F
1495912001.31,45576,15.0,74346.8,-0.55,-32.19,-32.69,0,*62
1495912002.56,45577,15.0,74348.3,-0.55,-32.19,-32.69,0,*63
1495912003.81,45578,15.0,74350.3,-0.55,-32.19,-32.57,0,*61
1495912005.05,45579,15.0,74348.3,-0.55,-32.19,-32.57,0,*60
1495912006.29,45580,14.94,74346.3,-0.55,-32.19,-32.57,0,*66
1495912007.55,45581,14.94,74344.5,-0.55,-32.19,-32.51,0,*61
1495912008.77,45582,15.0,74352.0,-0.57,-32.19,-32.57,0,*66
1495912009.96,45583,15.0,74350.8,-0.57,-32.23,-32.57,0,*6E
1495912011.18,45584,15.0,74350.8,-0.57,-32.19,-32.57,0,*60
1495912012.4,45585,15.0,74350.8,-0.59,-32.23,-32.57,0,*66
1495912013.62,45586,15.0,74350.0,-0.57,-32.23,-32.63,0,*6C
1495912014.84,45587,15.0,74350.3,-0.57,-32.23,-32.63,0,*6D
1495912016.06,45588,15.0,74348.8,-0.57,-32.23,-32.63,0,*62
1495912017.31,45589,14.94,74348.5,-0.59,-32.19,-32.57,0,*63
1495912018.52,45590,14.94,74348.8,-0.57,-32.01,-32.51,0,*6A
1495912019.77,45591,15.0,74350.5,-0.57,-32.19,-32.63,0,*63
1495912021.02,45592,14.94,74346.5,-0.59,-32.19,-32.57,0,*69
1495912022.27,45593,14.94,74346.0,-0.57,-32.19,-32.63,0,*61
1495912023.49,45594,14.94,74346.3,-0.57,-32.35,-32.75,0,*6F
1495912024.75,45595,15.0,74348.5,-0.59,-32.35,-32.75,0,*60
1495912026.02,45596,14.94,74344.8,-0.59,-32.19,-32.63,0,*6A
1495912027.28,45597,14.94,74344.3,-0.59,-32.35,-32.75,0,*62
1495912028.53,45598,14.94,74344.8,-0.59,-32.35,-32.75,0,*6D
1495912029.78,45599,14.94,74344.8,-0.59,-32.35,-32.79,0,*60
1495912031.04,45600,14.94,74348.5,-0.59,-32.23,-32.75,0,*68
1495912032.29,45601,14.94,74350.3,-0.59,-32.35,-32.75,0,*6E
1495912033.54,45602,15.0,74350.5,-0.59,-32.35,-32.63,0,*6A
1495912034.79,45603,14.94,74346.3,-0.59,-32.35,-32.75,0,*6C
1495912036.01,45604,14.94,74346.0,-0.61,-32.13,-32.63,0,*63
1495912037.22,45605,15.0,74350.3,-0.61,-32.39,-32.69,0,*60
1495912038.47,45606,14.94,74346.5,-0.61,-32.29,-32.79,0,*63
1495912039.69,45607,15.0,74350.5,-0.61,-32.23,-32.63,0,*63
1495912040.91,45608,15.0,74350.0,-0.61,-32.23,-32.63,0,*6C
1495912042.11,45609,15.0,74350.8,-0.61,-32.23,-32.69,0,*67
1495912043.35,45610,14.94,74350.0,-0.63,-32.23,-32.63,0,*67
1495912044.63,45611,14.94,74348.5,-0.63,-32.07,-32.63,0,*60
1495912045.91,45612,14.94,74346.8,-0.63,-32.07,-32.63,0,*63
1495912047.13,45613,15.0,74352.5,-0.61,-32.23,-32.63,0,*66
1495912048.36,45614,15.0,74348.0,-0.63,-32.23,-32.69,0,*69
1495912049.58,45615,14.94,74348.8,-0.63,-32.13,-32.57,0,*66
1495912050.83,45616,15.0,74348.3,-0.63,-32.13,-32.63,0,*62
1495912052.08,45617,14.94,74346.0,-0.63,-32.13,-32.63,0,*63
1495912053.33,45618,14.94,74344.0,-0.63,-32.13,-32.63,0,*6C
1495912054.58,45619,14.94,74348.8,-0.63,-32.23,-32.63,0,*6E
1495912055.83,45620,14.94,74346.5,-0.63,-32.13,-32.63,0,*67
1495912057.08,45621,14.94,74348.3,-0.63,-32.07,-32.57,0,*64
1495912058.33,45622,14.94,74350.8,-0.63,-32.13,-32.63,0,*65
1495912059.6,45623,15.0,74350.5,-0.67,-32.29,-32.75,0,*6E
1495912060.88,45624,14.94,74350.3,-0.67,-32.29,-32.75,0,*69
1495912062.14,45625,14.94,74350.3,-0.67,-32.19,-32.69,0,*66
1495912063.39,45626,14.94,74348.5,-0.67,-32.19,-32.69,0,*65
1495912064.65,45627,14.94,74344.0,-0.67,-32.19,-32.69,0,*64
1495912065.91,45628,14.94,74344.0,-0.67,-32.19,-32.69,0,*6B
1495912067.16,45629,14.94,74346.3,-0.67,-32.29,-32.69,0,*69
1495912068.38,45630,14.94,74348.0,-0.69,-32.23,-32.75,0,*68
1495912069.64,45631,14.94,74346.5,-0.67,-32.19,-32.69,0,*63
1495912070.86,45632,14.94,74348.8,-0.69,-32.13,-32.63,0,*6E
1495912072.14,45633,14.94,74344.3,-0.67,-32.19,-32.63,0,*6B
1495912073.35,45634,14.94,74350.3,-0.69,-32.01,-32.39,0,*64
1495912074.62,45635,14.94,74344.0,-0.63,-31.91,-32.29,0,*64
1495912075.85,45636,14.94,74350.5,-0.67,-32.01,-32.35,0,*64
1495912077.1,45637,14.94,74346.0,-0.67,-32.13,-32.63,0,*65
1495912078.34,45638,14.94,74348.5,-0.67,-32.01,-32.51,0,*68
1495912079.59,45639,14.94,74348.5,-0.67,-32.13,-32.45,0,*6F
1495912080.84,45640,14.94,74348.5,-0.67,-32.13,-32.63,0,*65
1495912082.04,45641,14.94,74346.8,-0.69,-32.35,-32.69,0,*64
1495912083.26,45642,14.94,74348.3,-0.69,-32.07,-32.57,0,*6B
1495912084.49,45643,14.94,74348.0,-0.69,-32.07,-32.57,0,*6A
1495912085.74,45644,14.94,74344.0,-0.67,-31.95,-32.35,0,*6F
1495912086.97,45645,15.0,74348.0,-0.69,-32.07,-32.51,0,*6A
1495912088.21,45646,14.94,74344.0,-0.67,-32.01,-32.51,0,*61
1495912089.44,45647,14.94,74344.8,-0.69,-32.19,-32.69,0,*6C
1495912090.67,45648,14.94,74348.5,-0.69,-32.07,-32.69,0,*6C
1495912091.9,45649,14.94,74346.0,-0.69,-32.35,-32.75,0,*61
1495912093.15,45650,14.94,74346.0,-0.67,-32.13,-32.63,0,*64
1495912094.35,45651,14.94,74346.8,-0.69,-32.23,-32.69,0,*62
1495912095.58,45652,14.94,74346.5,-0.69,-32.19,-32.69,0,*68
1495912096.81,45653,14.94,74344.8,-0.69,-32.07,-32.69,0,*66
1495912098.04,45654,14.94,74350.8,-0.69,-32.19,-32.69,0,*6E
1495912099.24,45655,15.0,74354.5,-0.69,-32.23,-32.69,0,*66
1495912100.49,45656,14.94,74350.5,-0.71,-32.19,-32.69,0,*65